OpenBCM V1.13 (Linux)

Packet Radio Mailbox

DB0FHN

[JN59NK Nuernberg]

 Login: GUEST





  
LU1HVK > KEP      07.09.19 07:36l 244 Lines 12026 Bytes #999 (0) @ WW
BID : 31293_LU1HVK
Read: DF7EAV DJ6UX GUEST
Subj: TLE 07 09
Path: DB0FHN<OE2XZR<OE5XBL<F1OYP<F4DUR<LU4ECL<JE7YGF<GB7CIP<N3HYM<LU3DVN<
      LU9HGS<LU1HVK
Sent: 190907/0523Z 31293@LU1HVK.2594.CBA.ARG.SA LinBPQ6.0.18

                         _    _   _ _ _   ___     ___  __
                        | |  | | | / | | | \ \   / / |/ /
                        | |  | | | | | |_| |\ \ / /| ' /
                        | |__| |_| | |  _  | \ V / | . \
                        |_____\___/|_|_| |_|  \_/  |_|\_\

     BBS/NODO - CORDOBA (LEONES-FF87UH) - LU1HVK-4 NODO - LU1HVK-3 APRS

+----------------------------------------------------------------------------+
OSCAR 7
1  7530U 74089B   19249.90698031 -.00000024  00000-0  13119-3 0  9999
2  7530 101.7522 216.7698 0011934 190.7532 233.2518 12.53639636 50574
OSCAR 11 (UoSAT 2)
1 14781U 84021B   19249.91959733 +.00000049 +00000-0 +12121-4 0  9991
2 14781 097.6078 270.8279 0009811 061.5996 298.6206 14.83104195889655
OSCAR 19 (LUSAT)
1 20442U 90005G   19249.83049700  .00000003  00000-0  17333-4 0  9996
2 20442  98.6527 191.7143 0010601 274.3337  85.6635 14.32931909547857
EYESAT A
1 22825U 93061C   19249.96147011 -.00000011 +00000-0 +13831-4 0  9995
2 22825 098.9092 240.4516 0009346 121.3920 238.8177 14.30065614353153
ITAMSAT
1 22826U 93061D   19249.94443698 -.00000006 +00000-0 +15656-4 0  9995
2 22826 098.9033 240.4156 0009945 111.3341 248.8903 14.30399508353374
RADIO ROSTO
1 23439U 94085A   19249.86962691 -.00000043  00000-0 -14684-4 0  9995
2 23439  64.8208 346.4667 0145648  97.6854 264.0636 11.27568365 17092
JAS 2
1 24278U 96046B   19249.92791205 -.00000042 +00000-0 -73588-5 0  9992
2 24278 098.5493 032.4877 0350889 032.1409 330.0607 13.53093081138404
TECHSAT 1B
1 25397U 98043D   19249.80995119 -.00000015 +00000-0 +12723-4 0  9993
2 25397 098.6921 188.9985 0001874 128.6355 231.4992 14.23669968099058
ISS (ZARYA)
1 25544U 98067A   19250.01497483  .00001191  00000-0  28498-4 0  9990
2 25544  51.6463 315.3854 0008171  13.8921  47.5012 15.50437561187953
PCSAT
1 26931U 01043C   19249.90192432 -.00000040 +00000-0 +16571-4 0  9993
2 26931 067.0516 156.6993 0007482 272.4481 087.5764 14.30551274936373
SAUDISAT 1C
1 27607U 02058C   19249.92715830 -.00000046 +00000-0 +14464-4 0  9991
2 27607 064.5552 164.2858 0077690 241.0430 118.2868 14.75569165898747
CUTE-1
1 27844U 03031E   19249.92688552 +.00000034 +00000-0 +34829-4 0  9999
2 27844 098.6851 256.9429 0010314 152.8958 207.2760 14.22192816839659
CUBESAT XI 4
1 27848U 03031J   19249.94189257 +.00000022 +00000-0 +30017-4 0  9995
2 27848 098.6927 257.4747 0009997 164.0241 196.1253 14.21786208839512
MOZHAYETS 4
1 27939U 03042A   19249.93001265 +.00000069 +00000-0 +20925-4 0  9997
2 27939 098.0525 024.2324 0013353 168.5600 191.5910 14.66800105852304
CUBESAT XI 5
1 28895U 05043F   19249.90212941 +.00000107 +00000-0 +29425-4 0  9991
2 28895 097.9704 029.9345 0018187 098.3098 262.0167 14.63687680738982
CUTE-1.7+APD II
1 32785U 08021C   19249.82517369 +.00000175 +00000-0 +24487-4 0  9994
2 32785 097.5534 245.7740 0013140 004.4392 355.6940 14.88339343615538
DELFI C3
1 32789U 08021G   19249.76052256  .00001152  00000-0  80701-4 0  9997
2 32789  97.4578 296.9860 0011562 204.5142 155.5537 15.07086849619021
SEEDS
1 32791U 08021J   19249.44006046 +.00000249 +00000-0 +30648-4 0  9992
2 32791 097.5301 251.4568 0012736 339.0199 021.0496 14.90861741615918
YUBELEINY
1 32953U 08025A   19249.88697096  .00000020  00000-0  75656-4 0  9990
2 32953  82.4999  94.8945 0019146 317.0022  42.9565 12.43091189512276
PRISM (HITOMI)
1 33493U 09002B   19249.95566348 +.00000459 +00000-0 +45714-4 0  9997
2 33493 098.1206 173.9529 0013497 279.9956 079.9741 14.96723744577145
KKS-1 (KISEKI)
1 33499U 09002H   19249.90171054 +.00000062 +00000-0 +17140-4 0  9996
2 33499 098.3458 091.1506 0008290 317.8347 042.2223 14.75459495570629
SWISSCUBE
1 35932U 09051B   19249.91603292 +.00000103 +00000-0 +34444-4 0  9991
2 35932 098.5960 058.2732 0006448 281.3076 078.7396 14.56305966528412
BEESAT
1 35933U 09051C   19249.91417264 +.00000098 +00000-0 +33172-4 0  9994
2 35933 098.5981 060.0644 0004742 298.4984 061.5735 14.56392516528482
ITUPSAT 1
1 35935U 09051E   19249.94942444 +.00000079 +00000-0 +29266-4 0  9990
2 35935 098.6091 060.3327 0007028 293.6521 066.3937 14.55549505528288
XIWANG-1 (HOPE-1)
1 36122U 09072B   19249.69263924 -.00000042  00000-0  69497-7 0  9997
2 36122 100.0751 248.3194 0007719 157.4876 202.6578 13.16351015467400
TISAT 1
1 36799U 10035E   19249.93923942 +.00000204 +00000-0 +26638-4 0  9994
2 36799 098.1660 044.8023 0012359 176.6569 183.4733 14.91147536496523
JUGNU
1 37839U 11058B   19249.97627549 +.00000324 +00000-0 +30907-4 0  9991
2 37839 019.9602 207.9200 0019115 131.9033 285.2948 14.12657709408514
SRMSAT
1 37841U 11058D   19249.37521025  .00000318  00000-0  29880-4 0  9991
2 37841  19.9714 269.9922 0011843 353.1544 128.3757 14.10638039407950
M-CUBED/EXP-1 PRIME
1 37855U 11061F   19249.81628733 +.00000367 +00000-0 +26600-4 0  9994
2 37855 101.7106 186.5404 0173053 199.2106 160.2527 15.05563261428361
HORYU 2
1 38340U 12025D   19249.58382482 +.00000123 +00000-0 +26054-4 0  9990
2 38340 098.3231 290.5457 0010597 224.7471 135.2883 14.75744411382536
STRAND 1
1 39090U 13009E   19249.89682792 +.00000012 +00000-0 +19529-4 0  9993
2 39090 098.4819 094.4846 0010188 054.7349 305.4788 14.35095586341871
SOMP
1 39134U 13015E   19249.94605955 +.00000863 +00000-0 +48482-4 0  9995
2 39134 064.8627 120.4050 0035467 289.8476 069.8830 15.20294900352417
BEESAT 3
1 39135U 13015F   19249.94508793 +.00000668 +00000-0 +42721-4 0  9991
2 39135 064.8690 139.8430 0031975 302.2875 057.5154 15.17580642352035
BEESAT 2
1 39136U 13015G   19249.94669860 +.00000789 +00000-0 +49514-4 0  9996
2 39136 064.8688 143.8890 0023795 304.7922 055.0965 15.16997396351959
CUBEBUG 1
1 39153U 13018D   19249.84816146  .00000136  00000-0  24715-4 0  9990
2 39153  97.9804 347.5322 0015687 301.2002  58.7672 14.80590158343670
ZACUBE
1 39417U 13066B   19249.96354810 +.00000152 +00000-0 +25375-4 0  9995
2 39417 097.5627 258.9547 0060169 129.8657 230.7871 14.81142890312925
TRITON 1
1 39427U 13066M   19249.89322897  .00000170  00000-0  35347-4 0  9998
2 39427  97.6846 222.3498 0112271 268.7639  90.0703 14.67873833310106
GOMX 1
1 39430U 13066Q   19249.77971869  .00000238  00000-0  52077-4 0  9992
2 39430  97.7527 201.0843 0151657   2.2401 357.9454 14.59279418308288
HUMSAT D
1 39433U 13066T   19249.54478702 +.00000474 +00000-0 +51431-4 0  9993
2 39433 097.5470 293.7594 0031619 036.8112 323.5270 14.92240476313802
CUBEBUG 2
1 39440U 13066AA  19249.95635885 +.00000139 +00000-0 +26271-4 0  9995
2 39440 097.6065 243.6720 0080067 183.1342 176.9378 14.75880714310619
FUNCUBE 1
1 39444U 13066AE  19249.91968130 +.00000193 +00000-0 +29872-4 0  9997
2 39444 097.5604 260.9359 0059399 123.6345 237.0556 14.81967536311227
UWE-3
1 39446U 13066AG  19249.95847140 +.00000159 +00000-0 +27662-4 0  9997
2 39446 097.5838 250.7806 0070607 156.9581 203.4825 14.78415650310538
SPROUT
1 39770U 14029E   19249.88933908 +.00000712 +00000-0 +84794-4 0  9991
2 39770 097.8878 352.6781 0008687 174.6360 185.4911 14.87409373286756
UNISAT 6
1 40012U 14033C   19249.71130761 +.00000129 +00000-0 +26691-4 0  9999
2 40012 097.7468 112.8339 0057716 198.4062 161.5059 14.74002197280476
DUCHIFAT 1
1 40021U 14033M   19249.75979143 +.00000291 +00000-0 +35553-4 0  9995
2 40021 097.9225 174.6175 0013637 140.6915 219.5295 14.90672503283474
QB50P1
1 40025U 14033R   19249.73818249  .00000223  00000-0  29702-4 0  9990
2 40025  97.9029 169.2865 0012993 150.2573 209.9385 14.88975289283238
CHUBUSAT 1
1 40300U 14070C   19249.80673682  .00000819  00000-0  38521-4 0  9995
2 40300  97.3203 321.9438 0020492 130.9147   8.8478 15.22156513268209
NUDT-PHONESAT
1 40900U 15049B   19249.74467943  .00002325  00000-0  10177-3 0  9992
2 40900  97.4377 258.3021 0011059 265.7515 209.7399 15.23000791219841
ZDPS 2A
1 40901U 15049C   19249.91093541 +.00000788 +00000-0 +42261-4 0  9992
2 40901 097.4608 254.5806 0012115 287.7425 159.6879 15.17813879219406
ZDPS 2B
1 40902U 15049D   19249.94001725 +.00001320 +00000-0 +68837-4 0  9999
2 40902 097.4557 252.0430 0011894 284.0674 134.6298 15.17661476219384
XW-2A
1 40903U 15049E   19249.78941882  .00001997  00000-0  48705-4 0  9991
2 40903  97.3310 292.9839 0012543 209.8410 210.3776 15.42053749222598
KAITUO 1A
1 40904U 15049F   19249.82971792  .00000484  00000-0  29091-4 0  9997
2 40904  97.4692 250.4753 0013061 293.4149 158.4763 15.15417538219135
OBJECT G
1 40905U 15049G   19249.89649524  .00000169  00000-0  12792-4 0  9990
2 40905  97.4738 248.0094 0014305 288.1274 140.1544 15.14332694219010
XW-2C
1 40906U 15049H   19249.75263476  .00000693  00000-0  39786-4 0  9998
2 40906  97.4698 250.5136 0013224 284.6450 192.4075 15.15738927219128
XW-2D
1 40907U 15049J   19249.91297523 +.00000665 +00000-0 +38117-4 0  9993
2 40907 097.4676 250.3509 0012716 281.2394 167.0058 15.15931790219168
LILACSAT 2
1 40908U 15049K   19249.96031123 +.00000134 +00000-0 +11033-4 0  9990
2 40908 097.4812 249.1457 0014442 287.9211 102.4831 15.13838864218952
XW-2F
1 40910U 15049M   19249.92558792 +.00001239 +00000-0 +65284-4 0  9999
2 40910 097.4641 252.4788 0013132 273.4224 148.2247 15.17399434219182
XW-2B
1 40911U 15049N   19249.94392028 +.00000663 +00000-0 +38102-4 0  9999
2 40911 097.4701 251.0460 0012574 282.2110 136.4192 15.15860427219061
KAITUO 1B
1 40912U 15049P   19249.90478576 +.00001110 +00000-0 +55106-4 0  9990
2 40912 097.4514 256.2242 0013369 251.8719 194.6358 15.19721815219497
TIANWANG 1C (TW-1C)
1 40926U 15051B   19249.89501541 +.00012741 +00000-0 +17709-3 0  9993
2 40926 097.1287 296.0024 0009765 079.2181 026.4680 15.57070976222633
TIANWANG 1B (TW-1B)
1 40927U 15051C   19249.81135257  .00012416  00000-0  18353-3 0  9998
2 40927  97.1317 295.1262 0009890  88.1489  35.8637 15.55402568222462
